ECHOSTAR 3

导读 | 豆包AI

EchoStar 3是美国EchoStar公司运营的通信卫星,由洛克希德·马丁公司建造,于1997年10月5日搭乘Atlas 2AS火箭发射升空。该卫星属于地球静止轨道卫星,主要承担卫星电视广播传输服务,设计服役年限期满后超期服役多年,2017年8月运营方EchoStar与其失去联系,正式结束通信服务使命,在EchoStar早期卫星通信网络布局中发挥了关键作用。

Basic Information
目录编号:
25004
目录名称:
ECHOSTAR 3
国际标识:
1997-059A
轨道中心:
EARTH
卫星名称:
ECHOSTAR 3
卫星全名:
--
卫星状态:
在轨 (已飞行10387 天)
发射日期:
1997-10-05 UTC
国别 :
美国 (US)
星等 :
--
Orbit Information
数据来源 国际轨道数据 AOE轨道数据
星历时间 2026-03-14T01:08:25+0800
16小时前
查看轨道信息
2026-03-14T12:00:00+0800
6小时前
查看轨道信息
半长轴 42560.646km 42560.503km
偏心率 0.0014947 0.0014819
轨道倾角 9.303° 9.304°
近地点辐角 340.305° 340.309°
升交点赤经 56.690° 56.685°
平近点角 38.776° 199.847°
近地点 36118.893km 36119.295km
远地点 36246.125km 36245.437km
周期 1456.371分钟 1456.364分钟
每日圈数 0.988759 0.988764
Detailed Information
使用方式:
暂无
2D Orbit Map
3D Orbit Map
Orbit Altitude Analysis Chart
Orbit Inclination Analysis Chart
Orbit Comprehensive Analysis Chart
View Comprehensive Chart